STARLINK-11282, 60992

Orbit data source: Space-Track

STARLINK-11282, 60992 is a payload satellite owned by SpaceX/Seattle (US) in LEO that was launched on Thu, 05 Sep 2024 UTC via an FALCON 9 launch vehicle from the Air Force Eastern Test Range (AFETR). Payload-class satellites include a variety of spacecraft equipped with specific instruments for various scientific and technological missions. These include communications satellites like Starlink; space stations such as the ISS; scientific satellites like the Hubble; Earth observation satellites from companies like Planet Labs, Umbra, and HawkEye 360; GPS; miniature CubeSats for education and research; and military/defense satellites.

Loading next visibility...
Identifier
60992, 2024-158C
Orbit
LEO
Last TLE update
7 hours ago
Origin
Manufacturer
SpaceX/Seattle
Mission
Operational Commercial Communications
Bus & Motor
STARLINK V2M, Unknown motor
Mass
730 kg wet, ~700 kg dry
Launch date (UTC)
2024-09-05 (10 months ago)
Launch vehicle
FALCON 9
Launch site
Air Force Eastern Test Range (AFETR)
Object type
Payload
Rocket body
Debris
Shape & HBR
Box + 2 Pan, 29 m
Radar Cross Section
36.964 m², Large (>1 m²)

Expand to show TLE details & history

TLE from 7 hours ago
0 STARLINK-11282
1 60992U 24158C   25182.88633064 -.00002385  00000-0 -14835-4 0  9997
2 60992  53.1597  77.6017 0001153  80.8546 279.2602 15.69711098 48206
Epoch: 2025-07-01T21:16Z
TLE epoch observation values (Epoch: 2025-07-01T21:16:18.967Z)
Latitude
-0.00004°
Longitude
-161.65271°
Altitude
360.514 km
Speed
7.694 km/s
True Right ascension
05h 10m 24s
True Declination
0° 00' 00"
Sunlit
Object was in daylight at epoch
Visualization orbit readout
Latitude
-36.63721°
Longitude
50.53702°
Altitude
372.156 km
Speed
7.686 km/s
Apparent Right ascension
23h 15m 28s
Apparent Declination
-61° 51' 23"
Sunlit
Object is in full shadow
Visualization observer readout
Local Sidereal Time
16:02:27
Azimuth
142.391° SSE
Elevation
-42.777°
Doppler factor
1
Orbital elements
Apogee altitude
360.761 km
Perigee altitude
359.207 km
Semi-major axis
6,738.121 km
Eccentricity
0.00012
Inclination
53.1597°
RAAN
77.6017°
Arg. of periapsis
80.8546°
True anomaly
Unknown
Mean anomaly
279.2602°
Eccentric anomaly
Unknown
Mean motion
3.92405 °/min
Orbital period
91.74 mins
BSTAR
-0.000014835
Loading maneuver chart data...
Loading SW <> Apogee altitude chart data...
Loading historical data...
Loading historical data...
Loading historical data...
Loading historical data...
Loading historical data...
Loading historical data...
Loading historical data...

STARLINK-11282 Visibility forecast

Observer location: undefined°, undefined°

Span
Click to sort rows by Start time (UTC) header in descending order
Start Az.
Max El. time (UTC)
Max El. Az.
Max El.
End time (UTC)
End Az.
4 mins2025-07-03 02:50:03.566Z283.829° WNW2025-07-03 02:51:03.566Z250.646° W32.686°2025-07-03 02:54:03.566Z152.63° SSE
|